| time (UTC) | temp F | wind direction | speed MPH | gust MPH | rain 1hr in | rain 24hr in | rain mn in | humidity % | barometer mb |
| 20260507003524 | 53 | 153 | 6.0 | 11.0 | 0.03 | 0.10 | 0.04 | 89 | 1018.5 |
| 20260507002655 | 53 | 160 | 6.0 | 13.0 | 0.02 | 0.09 | 0.03 | 89 | 1018.5 |
| 20260507001625 | 53 | 143 | 7.0 | 15.0 | 0.01 | 0.08 | 0.02 | 88 | 1018.6 |
| 20260507000555 | 54 | 152 | 5.0 | 14.0 | 0.00 | 0.07 | 0.01 | 86 | 1018.6 |
| 20260506235545 | 54 | 156 | 7.0 | 14.0 | 0.00 | 0.07 | 0.01 | 85 | 1018.4 |
| 20260506234535 | 55 | 136 | 5.0 | 14.0 | 0.01 | 0.07 | 0.01 | 83 | 1018.4 |
| 20260506233545 | 55 | 138 | 5.0 | 16.0 | 0.01 | 0.07 | 0.01 | 83 | 1018.2 |
| 20260506232515 | 55 | 155 | 6.0 | 15.0 | 0.01 | 0.07 | 0.01 | 82 | 1018.4 |
| 20260506231626 | 55 | 159 | 8.0 | 18.0 | 0.01 | 0.07 | 0.01 | 83 | 1018.4 |
| 20260506230616 | 55 | 162 | 5.0 | 14.0 | 0.01 | 0.07 | 0.01 | 83 | 1018.4 |
| 20260506225606 | 55 | 152 | 8.0 | 17.0 | 0.01 | 0.07 | 0.01 | 82 | 1018.6 |
| 20260506224617 | 55 | 149 | 5.0 | 21.0 | 0.00 | 0.06 | 0.00 | 82 | 1018.6 |
| 20260506223526 | 55 | 137 | 6.0 | 16.0 | 0.00 | 0.06 | 0.00 | 83 | 1018.7 |
| 20260506222516 | 55 | 130 | 4.0 | 14.0 | 0.00 | 0.06 | 0.00 | 83 | 1018.9 |
| 20260506221607 | 55 | 145 | 7.0 | 17.0 | 0.00 | 0.06 | 0.00 | 83 | 1018.7 |
| 20260506220557 | 55 | 152 | 4.0 | 15.0 | 0.00 | 0.06 | 0.00 | 82 | 1018.8 |
| 20260506215547 | 56 | 152 | 7.0 | 15.0 | 0.00 | 0.06 | 0.06 | 80 | 1018.8 |
| 20260506214537 | 57 | 153 | 7.0 | 16.0 | 0.00 | 0.06 | 0.06 | 78 | 1018.8 |
| 20260506213528 | 57 | 154 | 8.0 | 16.0 | 0.00 | 0.06 | 0.06 | 77 | 1018.6 |
| 20260506212517 | 57 | 159 | 5.0 | 16.0 | 0.00 | 0.06 | 0.06 | 78 | 1018.7 |
| 20260506211608 | 56 | 148 | 5.0 | 11.0 | 0.00 | 0.06 | 0.06 | 81 | 1018.7 |
| 20260506210639 | 56 | 165 | 3.0 | 8.0 | 0.00 | 0.06 | 0.06 | 83 | 1018.8 |
| 20260506205549 | 56 | 129 | 3.0 | 8.0 | 0.00 | 0.06 | 0.06 | 84 | 1018.9 |
| 20260506204558 | 56 | 160 | 2.0 | 9.0 | 0.00 | 0.06 | 0.06 | 84 | 1019.1 |
| 20260506203528 | 56 | 155 | 2.0 | 9.0 | 0.00 | 0.06 | 0.06 | 84 | 1019.3 |
| 20260506202518 | 56 | 158 | 2.0 | 7.0 | 0.00 | 0.06 | 0.06 | 84 | 1019.2 |
| 20260506201629 | 56 | 153 | 2.0 | 9.0 | 0.00 | 0.06 | 0.06 | 84 | 1019.2 |
| 20260506200559 | 56 | 135 | 4.0 | 9.0 | 0.00 | 0.06 | 0.06 | 84 | 1019.0 |
| 20260506195549 | 57 | 144 | 3.0 | 7.0 | 0.00 | 0.06 | 0.06 | 83 | 1019.3 |
| 20260506194540 | 57 | 148 | 1.0 | 7.0 | 0.00 | 0.06 | 0.06 | 83 | 1019.2 |
| 20260506193550 | 57 | 169 | 2.0 | 7.0 | 0.00 | 0.06 | 0.06 | 83 | 1019.1 |
| 20260506192539 | 57 | 119 | 2.0 | 7.0 | 0.00 | 0.06 | 0.06 | 82 | 1018.8 |
| 20260506191612 | 57 | 138 | 2.0 | 8.0 | 0.00 | 0.06 | 0.06 | 82 | 1018.8 |
| 20260506190600 | 57 | 136 | 1.0 | 8.0 | 0.00 | 0.06 | 0.06 | 82 | 1018.7 |
| 20260506185551 | 57 | 157 | 2.0 | 7.0 | 0.00 | 0.06 | 0.06 | 82 | 1018.7 |
| 20260506184540 | 57 | 168 | 0.0 | 7.0 | 0.01 | 0.06 | 0.06 | 81 | 1018.7 |
| 20260506183531 | 57 | 149 | 2.0 | 9.0 | 0.01 | 0.06 | 0.06 | 81 | 1018.6 |
| 20260506182521 | 57 | 155 | 4.0 | 7.0 | 0.01 | 0.06 | 0.06 | 80 | 1018.6 |
| 20260506181611 | 57 | 122 | 1.0 | 3.0 | 0.01 | 0.06 | 0.06 | 81 | 1018.7 |
| 20260506180601 | 57 | 152 | 5.0 | 9.0 | 0.01 | 0.06 | 0.06 | 81 | 1018.6 |
| 20260506175551 | 58 | 159 | 0.0 | 3.0 | 0.01 | 0.06 | 0.06 | 80 | 1018.6 |
| 20260506174541 | 58 | 142 | 0.0 | 4.0 | 0.00 | 0.05 | 0.05 | 78 | 1018.5 |
| 20260506173531 | 59 | 144 | 1.0 | 2.0 | 0.00 | 0.05 | 0.05 | 77 | 1018.3 |
| 20260506172541 | 59 | 145 | 1.0 | 2.0 | 0.00 | 0.05 | 0.05 | 77 | 1018.3 |
| 20260506171611 | 59 | 155 | 2.0 | 7.0 | 0.00 | 0.05 | 0.05 | 76 | 1018.4 |
| 20260506170602 | 59 | 133 | 0.0 | 3.0 | 0.00 | 0.05 | 0.05 | 75 | 1018.3 |
| 20260506165553 | 60 | 149 | 0.0 | 6.0 | 0.00 | 0.05 | 0.05 | 74 | 1018.2 |
| 20260506164543 | 60 | 118 | 1.0 | 4.0 | 0.00 | 0.05 | 0.05 | 73 | 1018.6 |
| 20260506163533 | 60 | 139 | 0.0 | 6.0 | 0.00 | 0.05 | 0.05 | 73 | 1018.6 |
| 20260506162523 | 60 | 197 | 0.0 | 3.0 | 0.00 | 0.05 | 0.05 | 73 | 1018.6 |
| 20260506161614 | 60 | 170 | 0.0 | 3.0 | 0.00 | 0.05 | 0.05 | 73 | 1018.6 |
| 20260506160623 | 60 | 139 | 0.0 | 2.0 | 0.00 | 0.05 | 0.05 | 73 | 1018.5 |
| 20260506155554 | 60 | 155 | 1.0 | 3.0 | 0.00 | 0.05 | 0.05 | 73 | 1018.6 |
| 20260506154544 | 60 | 159 | 1.0 | 4.0 | 0.00 | 0.05 | 0.05 | 72 | 1018.5 |
| 20260506153534 | 60 | 152 | 1.0 | 6.0 | 0.00 | 0.05 | 0.05 | 72 | 1018.6 |
| 20260506152524 | 61 | 154 | 0.0 | 2.0 | 0.00 | 0.05 | 0.05 | 71 | 1018.6 |
| 20260506151614 | 61 | 99 | 0.0 | 2.0 | 0.00 | 0.05 | 0.05 | 71 | 1018.7 |
| 20260506150604 | 61 | 131 | 0.0 | 1.0 | 0.00 | 0.05 | 0.05 | 71 | 1018.8 |
| 20260506145715 | 61 | 166 | 0.0 | 1.0 | 0.00 | 0.05 | 0.05 | 71 | 1018.8 |
| 20260506144545 | 62 | 142 | 0.0 | 3.0 | 0.00 | 0.05 | 0.05 | 71 | 1018.6 |
| 20260506143534 | 63 | 141 | 1.0 | 6.0 | 0.00 | 0.05 | 0.05 | 68 | 1018.6 |
| 20260506142524 | 63 | 132 | 0.0 | 3.0 | 0.00 | 0.05 | 0.05 | 65 | 1018.6 |
| 20260506141615 | 63 | 94 | 1.0 | 2.0 | 0.00 | 0.05 | 0.05 | 65 | 1018.6 |
| 20260506140605 | 64 | 111 | 1.0 | 3.0 | 0.00 | 0.05 | 0.05 | 64 | 1018.6 |
| 20260506135556 | 64 | 133 | 1.0 | 3.0 | 0.00 | 0.05 | 0.05 | 63 | 1018.6 |
| 20260506134545 | 64 | 139 | 0.0 | 2.0 | 0.00 | 0.05 | 0.05 | 62 | 1018.8 |
| 20260506133535 | 65 | 114 | 0.0 | 2.0 | 0.00 | 0.05 | 0.05 | 62 | 1018.7 |
| 20260506132525 | 65 | 124 | 0.0 | 3.0 | 0.00 | 0.05 | 0.05 | 62 | 1018.7 |
| 20260506131515 | 66 | 124 | 1.0 | 3.0 | 0.00 | 0.05 | 0.05 | 61 | 1018.8 |
| 20260506130606 | 67 | 106 | 1.0 | 2.0 | 0.00 | 0.05 | 0.05 | 61 | 1018.8 |
| 20260506125557 | 67 | 116 | 0.0 | 2.0 | 0.00 | 0.05 | 0.05 | 60 | 1018.7 |
| 20260506124546 | 67 | 179 | 0.0 | 3.0 | 0.00 | 0.05 | 0.05 | 60 | 1018.7 |
| 20260506123537 | 67 | 138 | 1.0 | 3.0 | 0.00 | 0.05 | 0.05 | 60 | 1018.8 |
| 20260506122526 | 67 | 121 | 1.0 | 4.0 | 0.00 | 0.05 | 0.05 | 60 | 1018.9 |
| 20260506121517 | 67 | 133 | 1.0 | 3.0 | 0.00 | 0.05 | 0.05 | 58 | 1018.7 |
| 20260506120607 | 68 | 199 | 1.0 | 3.0 | 0.00 | 0.05 | 0.05 | 60 | 1018.8 |
| 20260506115558 | 67 | 100 | 0.0 | 3.0 | 0.00 | 0.05 | 0.05 | 64 | 1018.7 |
| 20260506114548 | 67 | 127 | 1.0 | 4.0 | 0.00 | 0.05 | 0.05 | 66 | 1018.9 |
| 20260506113538 | 66 | 133 | 1.0 | 4.0 | 0.00 | 0.05 | 0.05 | 67 | 1018.7 |
| 20260506112528 | 65 | 140 | 2.0 | 9.0 | 0.00 | 0.05 | 0.05 | 69 | 1018.7 |
| 20260506111518 | 65 | 169 | 3.0 | 14.0 | 0.00 | 0.05 | 0.05 | 68 | 1018.7 |
| 20260506110628 | 64 | 154 | 4.0 | 10.0 | 0.00 | 0.05 | 0.05 | 72 | 1018.8 |
| 20260506105559 | 63 | 153 | 6.0 | 18.0 | 0.00 | 0.05 | 0.05 | 74 | 1019.0 |
| 20260506104608 | 62 | 146 | 2.0 | 10.0 | 0.00 | 0.05 | 0.05 | 77 | 1018.9 |
| 20260506103538 | 61 | 151 | 7.0 | 15.0 | 0.00 | 0.05 | 0.05 | 77 | 1018.9 |
| 20260506102548 | 62 | 149 | 4.0 | 15.0 | 0.00 | 0.05 | 0.05 | 76 | 1018.8 |
| 20260506101518 | 60 | 148 | 10.0 | 18.0 | 0.00 | 0.05 | 0.05 | 78 | 1018.8 |
| 20260506100609 | 60 | 167 | 8.0 | 17.0 | 0.00 | 0.05 | 0.05 | 79 | 1018.7 |
| 20260506095620 | 60 | 140 | 6.0 | 14.0 | 0.00 | 0.05 | 0.05 | 79 | 1018.8 |
| 20260506094609 | 58 | 146 | 11.0 | 21.0 | 0.00 | 0.05 | 0.05 | 82 | 1018.6 |
| 20260506093540 | 57 | 135 | 9.0 | 16.0 | 0.00 | 0.05 | 0.05 | 84 | 1018.9 |
| 20260506092529 | 56 | 159 | 7.0 | 13.0 | 0.00 | 0.05 | 0.05 | 84 | 1018.9 |
| 20260506091519 | 56 | 158 | 6.0 | 15.0 | 0.00 | 0.05 | 0.05 | 83 | 1018.8 |
| 20260506090610 | 56 | 159 | 7.0 | 14.0 | 0.00 | 0.05 | 0.05 | 82 | 1018.8 |
| 20260506085601 | 56 | 153 | 6.0 | 15.0 | 0.00 | 0.05 | 0.05 | 84 | 1018.7 |
| 20260506084551 | 56 | 144 | 4.0 | 15.0 | 0.00 | 0.05 | 0.05 | 84 | 1018.8 |
| 20260506083540 | 57 | 147 | 7.0 | 16.0 | 0.00 | 0.05 | 0.05 | 82 | 1018.6 |
| 20260506082530 | 57 | 155 | 9.0 | 15.0 | 0.00 | 0.05 | 0.05 | 82 | 1018.3 |
| 20260506081520 | 57 | 141 | 7.0 | 15.0 | 0.00 | 0.05 | 0.05 | 81 | 1018.2 |
| 20260506080631 | 57 | 156 | 7.0 | 19.0 | 0.00 | 0.05 | 0.05 | 81 | 1018.1 |
| 20260506072531 | 56 | 152 | 12.0 | 16.0 | 0.00 | 0.05 | 0.05 | 81 | 1018.3 |
| 20260506071521 | 55 | 158 | 9.0 | 15.0 | 0.01 | 0.05 | 0.05 | 82 | 1018.5 |
| 20260506070612 | 55 | 142 | 8.0 | 14.0 | 0.01 | 0.05 | 0.05 | 84 | 1018.6 |
| 20260506061522 | 55 | 157 | 7.0 | 15.0 | 0.02 | 0.18 | 0.04 | 84 | 1018.8 |
| 20260506060613 | 55 | 153 | 9.0 | 15.0 | 0.03 | 0.22 | 0.04 | 84 | 1018.6 |
| 20260506050614 | 56 | 151 | 8.0 | 14.0 | 0.00 | 0.27 | 0.01 | 80 | 1018.6 |
| 20260506044554 | 56 | 156 | 7.0 | 13.0 | 0.00 | 0.27 | 0.01 | 81 | 1018.8 |
| 20260506043545 | 55 | 155 | 6.0 | 13.0 | 0.00 | 0.28 | 0.01 | 82 | 1018.9 |
| 20260506042536 | 55 | 152 | 2.0 | 8.0 | 0.00 | 0.29 | 0.01 | 82 | 1018.9 |
| 20260506041523 | 56 | 143 | 3.0 | 10.0 | 0.00 | 0.30 | 0.01 | 82 | 1018.8 |
| 20260506040614 | 56 | 148 | 6.0 | 9.0 | 0.00 | 0.30 | 0.01 | 81 | 1018.7 |
| 20260506035609 | 56 | 165 | 7.0 | 11.0 | 0.00 | 0.32 | 0.01 | 82 | 1018.7 |
| 20260506034556 | 56 | 168 | 3.0 | 9.0 | 0.00 | 0.33 | 0.01 | 81 | 1018.7 |
| 20260506033545 | 57 | 151 | 2.0 | 8.0 | 0.00 | 0.35 | 0.01 | 80 | 1018.8 |
| 20260506032535 | 57 | 148 | 8.0 | 11.0 | 0.00 | 0.36 | 0.01 | 79 | 1018.7 |
| 20260506031545 | 57 | 148 | 6.0 | 9.0 | 0.00 | 0.38 | 0.01 | 79 | 1018.9 |
| 20260506025607 | 57 | 154 | 7.0 | 10.0 | 0.01 | 0.41 | 0.01 | 80 | 1019.0 |
| 20260506024556 | 56 | 155 | 8.0 | 10.0 | 0.01 | 0.41 | 0.01 | 80 | 1019.0 |
| 20260506023546 | 56 | 160 | 6.0 | 9.0 | 0.01 | 0.41 | 0.01 | 80 | 1019.1 |
| 20260506022556 | 54 | 158 | 8.0 | 14.0 | 0.01 | 0.41 | 0.01 | 81 | 1019.2 |
| 20260506021526 | 54 | 152 | 8.0 | 11.0 | 0.01 | 0.41 | 0.01 | 81 | 1019.4 |
| 20260506020516 | 55 | 138 | 4.0 | 9.0 | 0.00 | 0.40 | 0.00 | 82 | 1019.5 |
| 20260506015608 | 56 | 144 | 7.0 | 10.0 | 0.00 | 0.40 | 0.00 | 78 | 1019.5 |
| 20260506014618 | 56 | 156 | 7.0 | 13.0 | 0.00 | 0.40 | 0.00 | 77 | 1019.4 |
| 20260506013548 | 56 | 165 | 7.0 | 13.0 | 0.00 | 0.40 | 0.00 | 76 | 1019.3 |
| 20260506012537 | 57 | 153 | 9.0 | 11.0 | 0.00 | 0.40 | 0.00 | 74 | 1019.2 |
| 20260506011528 | 57 | 154 | 11.0 | 15.0 | 0.00 | 0.40 | 0.00 | 71 | 1019.2 |
| 20260506010537 | 57 | 154 | 11.0 | 16.0 | 0.00 | 0.40 | 0.00 | 67 | 1019.0 |
| 20260506005609 | 57 | 160 | 10.0 | 16.0 | 0.00 | 0.40 | 0.00 | 67 | 1019.2 |
| 20260506004559 | 57 | 161 | 8.0 | 15.0 | 0.00 | 0.40 | 0.00 | 66 | 1019.3 |